GFSGBSN_500_rhum_141.txt.gz
RH
99 94 95 96 92 94 88 86 88 69 40 33 27 23 22 22 22 21 19 17 15 14 13 12 11 11 11 11 11 11 12 13 14 14 13 13 14 12 11 9 8 8 9 12 13 12 10
96 95 95 96 96 96 98 98 96 94 90 86 83 37 25 25 23 22 22 21 20 20 18 17 18 18 18 17 15 16 15 15 16 14 15 14 12 11 10 9 10 10 8 12 13 9 9
97 97 96 97 96 99 98 98 99 100 98 96 96 96 85 68 63 59 41 28 28 30 24 28 27 20 22 22 22 21 20 19 18 16 15 15 11 12 15 17 21 24 16 10 12 12 11
99 99 98 97 98 98 100 98 98 98 98 96 98 96 98 95 95 95 95 86 90 78 74 75 58 51 47 52 47 46 35 39 45 35 25 24 26 26 29 33 37 37 32 18 12 12 12
89 97 99 96 98 98 97 97 97 97 95 97 97 98 97 94 85 92 88 93 98 94 87 83 74 73 66 68 70 68 67 67 70 63 45 41 41 40 40 42 40 40 34 14 15 19 19
65 81 95 98 96 99 98 97 97 96 90 95 97 100 96 98 94 95 98 100 98 95 94 84 76 78 61 59 72 71 71 73 77 72 65 59 51 48 58 46 40 26 20 16 22 44 40
66 61 75 92 97 98 100 97 96 97 95 97 96 96 97 95 96 96 98 99 90 88 79 72 74 74 52 62 77 82 74 72 69 74 82 73 59 53 57 35 30 22 21 25 34 46 39
61 66 68 60 85 96 96 97 96 95 97 97 97 97 95 93 91 93 96 94 93 90 74 65 75 64 66 81 63 92 85 82 85 78 72 62 47 70 67 54 42 38 29 35 30 41 51
53 59 72 70 70 76 95 95 97 93 92 94 95 96 96 95 95 95 96 94 95 94 85 75 78 66 92 94 68 76 93 87 76 71 72 66 57 72 75 73 66 58 56 60 69 70 80
48 58 60 63 71 73 78 89 94 98 94 100 99 95 95 90 92 91 95 91 94 94 94 61 83 80 84 91 72 90 98 91 76 67 74 61 60 72 80 78 82 68 77 84 86 89 82
19 30 37 45 51 52 60 67 70 79 88 84 99 90 97 95 83 79 90 97 87 96 83 64 62 70 84 90 84 89 100 91 77 77 79 62 59 81 79 80 96 57 87 80 79 83 82
28 25 22 21 20 22 29 35 45 55 62 60 61 57 62 58 67 59 65 68 64 66 64 53 48 51 55 61 88 88 88 76 70 69 76 68 68 54 63 86 86 81 91 84 93 90 70
46 44 39 32 24 20 18 18 18 18 19 19 21 26 31 42 49 49 55 49 42 42 38 42 39 34 30 31 39 66 72 66 71 68 60 82 72 89 85 93 96 90 99 94 91 80 44
64 60 54 45 36 28 23 22 21 22 18 17 16 15 13 12 14 13 13 12 11 10 9 12 14 18 22 15 17 18 21 34 59 68 55 90 65 87 94 93 98 98 100 91 96 84 65
97 87 72 66 60 52 45 38 35 32 29 26 26 26 22 19 21 17 19 19 12 12 12 12 14 13 12 11 12 14 15 15 19 26 33 50 73 69 98 100 97 82 97 77 100 96 96
100 100 100 96 82 64 59 55 50 44 39 38 36 37 32 28 31 28 27 21 17 18 20 20 20 19 17 16 15 14 16 14 18 24 45 37 45 58 77 99 86 89 99 100 98 95 92
100 100 100 100 96 85 73 67 64 57 52 51 46 40 38 34 35 33 43 25 25 25 23 21 18 15 14 14 13 14 14 16 16 19 31 32 64 33 50 71 81 100 98 98 99 97 93
100 100 100 99 99 100 93 84 78 74 68 58 50 44 40 39 36 34 31 31 27 23 25 24 18 15 18 27 26 28 24 17 14 18 39 46 63 29 26 39 53 92 98 100 100 91 100
100 100 98 97 97 100 100 100 98 89 74 63 57 52 47 42 40 35 33 31 28 27 27 28 28 27 29 36 40 40 44 37 45 58 82 92 100 100 17 22 55 96 97 100 100 100 95
100 100 100 100 97 99 92 90 87 79 66 59 55 48 44 45 42 42 42 39 36 33 37 35 32 30 44 40 48 32 36 92 86 100 77 62 63 74 100 82 80 98 100 99 99 100 94
100 100 100 97 92 78 55 43 33 31 31 42 46 48 48 47 47 48 45 39 37 36 33 23 26 26 98 100 53 62 64 98 100 92 81 62 78 70 100 100 100 100 99 90 89 100 100
99 100 94 78 54 58 48 36 30 50 40 44 62 67 62 59 58 52 44 37 38 23 21 17 17 38 100 98 25 75 99 100 100 90 63 50 71 100 93 100 100 100 100 100 100 100 100
99 98 99 96 87 55 35 29 26 38 48 66 79 74 69 65 59 56 49 42 35 27 22 18 15 15 20 15 36 99 100 92 92 86 68 69 86 100 98 100 98 98 100 100 100 100 100
96 92 70 58 59 29 34 52 69 76 83 83 85 80 82 65 61 56 54 51 40 35 29 25 21 18 15 12 17 33 98 83 94 96 88 100 99 100 100 100 99 75 100 98 100 100 100
99 99 98 95 89 85 87 89 90 88 82 76 82 87 81 64 64 53 58 56 50 40 32 25 22 19 17 14 15 31 26 44 84 91 79 88 100 100 100 98 90 86 85 84 90 99 95
100 100 100 99 95 94 92 87 87 90 92 78 86 87 80 67 47 60 58 55 50 43 36 26 22 23 22 15 40 100 89 100 99 100 76 91 72 84 82 80 54 40 42 57 42 61 76
97 93 97 99 96 93 94 94 95 100 100 88 87 90 82 62 52 57 56 54 52 45 36 30 26 22 21 13 24 100 100 96 100 95 95 63 78 69 61 39 22 25 42 44 48 70 59
100 100 100 97 93 93 93 92 93 98 100 91 82 77 71 59 46 51 51 44 50 44 36 29 25 21 18 36 40 100 100 94 100 92 80 60 75 52 24 22 21 39 56 48 71 98 100
100 100 100 98 95 91 88 87 88 84 82 80 62 71 68 51 35 38 39 41 37 35 30 24 19 23 31 91 91 84 95 100 100 97 98 69 45 29 26 31 26 32 51 36 36 40 59

GFSGBSN_500_rhum_147.txt.gz
RH
58 65 85 83 88 86 65 61 43 39 40 45 40 30 23 20 17 15 14 14 12 13 13 12 12 12 11 11 11 10 10 10 9 9 10 10 10 10 11 12 13 15 17 17 15 15 16
60 72 66 72 82 91 94 86 84 62 51 42 44 46 43 30 27 24 21 20 22 20 22 21 22 19 16 14 14 12 13 15 18 18 18 17 15 14 14 16 18 19 18 19 17 15 16
96 88 95 69 68 71 86 90 86 94 96 86 71 74 71 62 45 44 43 40 47 40 37 40 45 41 34 27 26 25 24 24 23 23 23 23 24 22 21 22 22 25 26 22 17 12 17
50 32 96 99 78 95 87 86 98 97 97 95 95 96 96 96 93 76 70 51 49 60 66 51 47 42 39 40 36 35 29 31 35 33 30 32 32 28 28 34 33 33 36 38 19 14 16
7 12 47 60 97 98 94 70 73 94 77 86 92 93 96 97 92 91 86 83 78 86 85 62 57 61 58 72 74 58 46 53 54 52 51 53 55 56 57 55 53 52 48 48 36 27 27
10 9 11 29 97 94 98 80 66 68 82 80 88 87 98 99 96 96 86 84 85 90 90 85 81 72 65 73 84 81 80 74 82 84 81 74 62 55 63 76 66 66 60 56 55 42 42
15 15 12 14 43 70 100 96 65 88 82 91 94 96 98 99 98 100 92 86 96 94 95 91 82 86 76 86 92 98 95 90 92 87 85 79 62 64 76 64 60 65 69 65 64 64 62
20 21 18 16 14 43 72 84 74 83 100 94 94 97 98 98 100 98 97 99 100 96 90 96 89 87 98 91 86 99 95 95 93 100 87 74 60 76 68 64 64 60 63 72 75 75 61
27 25 25 21 19 22 37 99 72 94 99 100 99 98 98 98 96 97 98 96 100 99 87 96 97 84 99 87 80 98 94 97 91 88 83 72 64 73 71 70 71 75 70 75 73 77 66
32 35 36 28 24 21 34 61 100 100 95 99 98 98 98 98 94 97 97 97 98 95 94 80 100 92 99 98 82 92 99 91 92 86 93 70 72 78 84 74 84 63 74 78 74 70 58
70 61 47 37 31 32 32 38 63 93 98 100 100 100 98 98 98 97 97 96 96 98 90 80 81 90 89 93 95 93 100 96 84 98 93 78 74 82 76 96 92 76 72 77 76 74 62
76 68 64 54 43 35 35 37 44 52 89 97 98 100 100 100 97 95 95 98 96 96 78 83 71 75 84 89 96 96 92 94 96 95 89 86 84 81 88 91 96 97 87 84 79 77 62
64 70 74 64 63 53 42 36 36 49 60 73 88 94 97 100 99 95 88 74 75 66 58 55 48 51 53 51 64 72 63 57 56 70 81 89 76 61 77 88 92 90 89 91 82 73 57
88 91 100 94 78 68 58 49 40 35 35 50 59 65 76 94 87 74 58 58 55 39 36 34 33 38 39 31 35 39 41 35 33 28 25 30 36 42 46 50 79 96 93 87 85 84 75
100 100 100 100 98 88 79 66 56 43 31 29 32 35 51 56 56 47 37 31 25 20 20 19 18 19 21 22 23 26 26 20 16 12 12 12 12 16 26 32 35 49 68 97 98 97 97
100 100 100 100 100 100 98 87 76 53 39 33 27 26 25 24 24 24 23 20 18 17 16 15 14 14 12 11 12 12 12 13 13 12 13 16 15 14 14 15 22 32 67 76 97 100 99
100 100 100 100 100 100 100 99 78 54 46 34 30 30 31 34 36 36 32 29 26 21 19 19 20 22 20 19 18 16 14 15 16 17 20 19 17 16 16 20 31 58 52 74 71 92 85
100 100 100 100 100 100 100 100 100 69 52 46 45 44 44 45 41 41 39 36 33 30 28 28 29 28 26 23 21 20 19 21 21 23 22 22 21 20 19 16 17 32 49 62 65 53 86
100 100 100 99 100 100 100 100 100 98 84 64 57 56 56 41 44 43 45 44 45 44 45 39 39 38 33 28 26 24 24 28 27 27 24 22 22 19 16 14 16 28 39 43 46 100 98
100 100 100 100 100 100 100 100 100 100 99 100 93 88 86 86 80 83 74 56 53 52 46 42 43 39 35 34 39 30 30 30 31 30 26 23 20 18 15 13 16 28 46 48 67 100 100
100 100 100 100 100 100 100 100 95 84 83 88 93 92 78 72 78 70 78 84 79 63 49 43 44 40 37 37 40 42 40 35 28 25 25 25 21 27 20 14 27 26 27 26 40 64 83
100 100 100 100 100 100 100 100 100 100 100 98 92 92 93 95 97 92 91 85 92 88 82 69 59 52 51 54 56 51 42 34 31 30 30 31 32 32 32 41 37 32 37 38 100 100 79
100 100 100 100 100 100 97 94 88 89 96 100 100 100 100 100 100 100 99 98 92 91 90 91 90 82 70 56 49 44 38 34 31 28 27 26 25 32 48 68 38 37 28 85 69 59 79
100 100 100 100 100 99 100 100 100 100 100 100 98 99 97 92 91 88 87 85 92 92 90 83 63 53 50 45 42 39 37 36 32 27 27 26 28 53 71 83 52 32 39 50 56 62 89
100 100 100 100 100 100 100 100 100 99 90 91 90 88 92 92 89 84 78 78 74 63 60 61 57 55 50 48 46 39 37 34 30 24 27 22 20 28 41 40 44 34 32 48 65 58 72
100 100 100 100 100 100 100 100 96 87 93 92 94 86 61 59 63 58 55 55 60 67 65 57 57 61 58 50 46 42 38 35 30 27 25 20 18 17 17 66 51 29 38 48 90 70 67
100 100 100 100 100 100 100 100 99 95 95 97 94 72 64 68 65 68 71 70 66 66 61 60 61 59 56 54 51 43 40 40 36 31 27 21 26 32 40 72 39 28 36 73 95 73 40
100 100 100 100 100 100 100 100 100 99 100 100 100 96 84 72 67 65 68 67 67 66 67 64 63 62 59 58 58 54 49 47 42 34 22 16 16 75 100 96 85 48 52 96 88 52 35
100 100 100 100 100 100 100 100 100 99 91 85 84 80 71 59 56 61 56 61 81 77 67 66 57 56 67 64 56 53 47 44 39 29 23 17 14 17 94 77 100 100 100 88 56 57 40

GFSGBSN_500_rhum_150.txt.gz
RH
25 28 30 36 56 70 74 63 69 61 49 40 26 22 20 19 16 16 15 14 14 15 15 16 18 18 19 18 18 16 15 14 13 12 11 10 10 10 10 11 13 15 13 11 12 14 17
7 21 30 30 36 42 51 56 73 80 71 78 54 35 30 29 31 24 24 24 23 22 18 15 14 13 12 13 14 15 15 14 13 12 12 12 13 16 20 22 22 22 21 18 17 19 21
58 15 34 60 58 59 57 49 65 66 79 88 86 80 54 48 43 37 43 42 42 42 38 26 22 20 19 27 23 23 25 26 25 26 24 24 25 26 27 27 29 29 30 28 24 23 25
9 18 90 90 40 75 63 77 78 70 80 80 88 80 86 86 88 68 55 50 53 58 51 41 34 22 23 48 49 58 56 49 43 45 38 34 40 34 34 40 39 38 38 37 39 35 34
10 59 52 43 16 74 69 98 91 84 85 77 77 74 79 82 95 95 93 85 74 62 63 70 61 47 41 48 45 56 68 61 58 62 61 61 57 53 46 52 54 55 56 57 58 54 49
14 12 10 13 10 76 88 44 56 97 90 81 97 94 97 99 83 79 87 88 91 84 74 81 78 70 68 72 74 76 78 72 67 65 67 59 56 58 62 72 70 68 59 59 61 62 58
18 16 13 12 12 21 95 75 100 89 99 95 98 90 93 98 94 77 81 80 80 70 71 86 66 74 71 79 77 78 78 78 76 68 68 72 60 65 85 73 64 63 68 68 69 72 64
26 20 18 16 14 20 73 51 100 93 85 96 95 99 90 91 100 88 90 99 100 89 82 82 79 79 84 81 75 82 78 82 89 96 89 85 74 76 86 79 76 71 68 68 68 70 57
46 34 23 20 19 18 21 19 55 66 98 94 83 100 99 96 98 100 94 100 100 99 89 89 95 83 89 80 90 100 99 93 96 93 98 93 82 82 85 81 75 79 73 74 69 62 58
62 52 46 30 25 22 20 17 21 25 98 99 91 96 92 90 93 98 98 97 98 98 96 93 99 77 90 97 91 100 96 93 94 95 99 88 91 81 87 79 86 81 93 81 76 71 62
56 59 53 47 40 28 26 26 22 18 36 75 97 100 99 92 88 97 99 95 98 97 95 95 91 93 91 94 96 94 99 94 89 95 96 94 88 90 92 92 92 85 86 90 91 87 70
50 55 72 65 49 41 39 34 30 24 23 44 100 77 100 96 100 99 98 99 98 100 89 90 87 85 86 83 90 85 90 97 96 93 92 98 90 92 95 95 94 94 99 87 86 91 65
60 57 90 90 84 45 52 47 40 33 31 30 48 80 95 100 96 94 100 100 100 96 88 83 78 78 80 74 46 50 59 61 79 80 82 96 95 90 93 95 91 88 87 90 89 86 69
99 98 89 70 78 56 60 64 51 46 42 38 37 43 61 68 94 98 100 100 96 81 84 75 65 58 46 55 38 30 29 41 49 51 60 72 81 88 92 86 62 68 92 97 96 95 86
100 100 100 92 100 89 95 86 72 63 53 44 42 41 34 33 46 77 83 89 86 81 69 46 36 33 29 24 25 26 21 25 32 31 31 34 33 33 33 39 38 41 53 64 66 54 62
100 100 100 100 100 100 100 99 89 78 68 59 50 42 38 35 34 52 48 42 39 34 31 25 23 21 20 18 17 18 16 15 15 17 19 18 21 21 25 27 32 25 31 50 75 100 98
100 100 100 100 100 100 100 100 100 98 86 76 57 49 47 39 37 36 31 27 26 25 23 21 19 17 16 16 15 14 14 13 12 11 11 11 12 13 17 24 36 25 33 75 100 100 99
69 92 97 100 100 100 100 100 100 100 100 88 77 58 50 46 38 33 34 32 29 26 25 28 26 24 22 19 17 16 16 16 16 17 16 14 12 13 13 16 24 30 29 33 47 74 76
48 68 97 90 100 100 100 100 100 100 100 99 85 64 55 40 34 33 28 32 33 35 38 36 32 30 28 28 27 27 27 24 23 21 19 18 18 16 16 26 23 23 22 22 28 40 30
43 61 87 99 100 100 100 100 100 100 100 100 95 78 58 40 34 33 34 41 45 47 45 44 44 45 45 44 41 36 37 32 27 25 23 22 21 21 20 21 41 25 25 24 21 20 24
66 99 100 100 100 100 100 100 100 100 100 100 99 90 61 44 40 36 33 35 36 37 40 64 82 66 72 57 45 55 50 38 36 33 37 41 28 28 26 30 28 25 23 19 20 19 30
100 100 100 100 100 100 100 100 100 100 100 100 98 73 62 48 29 32 36 60 89 99 100 100 100 94 85 74 46 42 41 40 38 43 54 42 37 38 41 34 26 24 22 19 17 26 32
100 100 100 86 94 88 82 99 100 97 99 98 95 98 99 93 94 96 100 100 100 100 100 100 98 93 57 55 58 60 58 49 48 54 58 56 47 37 40 29 28 36 21 20 20 39 36
100 99 100 100 100 100 100 100 94 83 70 57 52 53 72 70 68 77 78 90 95 95 91 88 91 94 84 79 77 77 76 75 71 66 53 47 39 36 33 28 26 20 19 17 37 44 42
100 100 100 100 100 100 99 98 98 99 98 96 99 99 98 99 100 99 100 99 100 99 99 97 99 96 93 91 84 78 70 62 54 46 39 37 38 35 31 26 23 16 14 29 33 28 37
100 100 100 100 100 100 100 100 100 100 100 100 100 100 100 100 100 100 99 100 96 95 94 95 98 92 86 75 73 68 65 56 47 36 33 38 41 34 28 25 23 17 22 24 31 37 57
100 100 100 100 100 100 100 100 100 100 100 100 100 96 96 93 94 96 98 99 97 96 92 87 80 70 64 57 50 43 38 36 33 30 39 40 76 71 62 73 49 26 26 23 41 37 48
100 100 100 100 100 100 100 100 99 100 100 98 95 93 93 92 97 88 81 78 80 75 71 67 66 55 53 53 51 46 38 39 35 35 37 40 41 45 39 45 49 47 90 91 98 42 40
100 98 99 100 100 100 100 99 99 99 99 100 93 86 84 90 88 81 76 77 80 74 68 61 58 50 53 56 51 53 39 39 38 36 39 38 43 39 32 27 23 98 98 94 100 70 60

GFSGBSN_500_rhum_153.txt.gz
RH
30 35 37 49 57 65 69 68 62 53 44 31 32 33 20 20 18 15 15 19 21 22 22 22 22 22 22 22 22 21 22 22 31 21 22 18 16 14 12 11 11 10 10 12 15 19 21
10 41 35 37 39 46 54 58 61 66 67 68 45 35 36 33 26 31 25 18 14 14 15 16 16 18 18 18 15 16 15 22 19 18 17 15 14 12 12 12 12 13 14 18 21 24 29
5 33 22 20 31 38 42 53 57 59 64 67 70 69 52 36 40 48 38 30 26 21 18 22 21 18 16 26 24 21 18 17 16 16 15 16 18 20 23 27 20 25 25 26 29 34 36
7 6 6 12 68 40 21 24 34 45 65 65 61 56 64 63 66 63 46 62 54 41 27 31 38 28 19 46 40 44 40 38 29 32 38 39 45 52 40 32 32 35 40 44 42 40 39
9 9 9 7 8 29 51 22 24 51 54 47 44 57 65 70 71 65 59 59 64 68 72 54 34 44 31 45 43 49 53 53 50 42 38 40 42 50 54 44 45 49 47 52 53 53 47
14 14 12 10 10 14 76 39 68 97 52 94 90 77 76 100 75 83 81 74 68 69 66 70 65 66 59 54 53 55 54 56 56 53 43 54 52 57 67 57 48 69 71 61 61 69 57
16 17 19 16 14 11 50 43 99 72 29 49 96 90 82 90 78 61 67 94 97 82 76 76 72 76 75 71 68 60 60 72 74 74 66 62 58 59 70 73 64 69 76 72 77 74 58
27 23 23 23 20 16 85 55 98 65 45 98 98 96 92 92 90 94 96 91 100 87 83 76 64 54 62 62 56 68 72 74 68 66 65 57 52 58 58 75 73 86 84 76 78 80 63
28 34 32 29 27 23 21 92 91 92 37 94 100 79 100 96 97 90 98 81 94 76 73 67 57 51 68 57 78 83 72 79 74 73 74 73 77 61 70 93 87 90 90 84 80 76 57
34 45 51 44 37 30 24 21 68 95 28 21 98 78 97 100 91 72 97 82 88 92 99 72 85 60 74 84 87 99 90 91 89 90 94 73 83 77 81 94 97 82 99 86 75 72 59
27 39 57 65 54 44 37 28 21 19 19 14 52 99 98 96 96 98 100 100 92 100 98 83 94 100 98 98 86 99 98 97 93 100 100 84 88 98 90 98 98 85 91 93 84 84 72
14 25 44 56 66 63 53 46 37 26 23 18 23 95 99 100 59 78 98 93 77 100 94 76 77 87 93 97 98 90 97 99 87 84 88 96 91 83 95 91 99 96 95 99 93 93 74
14 29 43 50 60 66 68 63 54 40 31 23 21 21 25 52 87 98 99 95 100 94 68 69 76 76 88 95 95 91 92 96 96 77 62 63 66 80 81 87 95 97 97 95 97 98 68
96 100 51 50 59 66 80 84 100 58 44 36 31 32 24 26 34 74 90 77 93 79 100 65 70 81 93 84 85 96 93 79 91 91 81 72 58 55 51 55 64 76 90 94 100 99 93
100 100 100 100 100 99 100 100 100 99 61 50 44 36 31 29 28 37 83 99 66 69 84 62 71 68 87 79 83 61 50 33 25 23 36 44 50 52 46 40 49 60 73 75 92 84 89
96 100 100 100 100 100 100 100 100 100 78 78 61 49 42 43 40 47 60 54 64 62 87 94 96 93 89 80 74 44 26 25 20 17 17 22 40 26 22 29 34 37 43 58 63 72 71
97 98 99 100 100 86 100 96 100 100 100 92 79 68 54 50 48 54 61 31 49 31 30 41 48 48 50 51 34 23 23 20 16 15 16 17 15 28 13 17 27 23 38 57 49 53 58
100 100 100 100 100 98 98 100 100 98 100 100 100 97 74 69 62 57 46 41 40 35 35 38 38 36 30 26 23 21 19 18 16 15 15 14 14 14 15 40 27 56 78 100 70 76 74
83 57 59 86 98 100 100 100 100 100 100 100 100 98 87 100 100 100 52 48 48 44 37 38 33 29 26 24 24 22 21 21 19 18 17 17 16 15 14 17 37 25 41 27 35 28 21
43 37 28 37 59 94 96 99 98 100 100 100 100 99 83 86 100 93 72 60 47 42 37 32 26 26 25 25 26 25 25 26 24 22 20 20 21 21 19 38 100 100 100 44 25 28 22
65 50 25 21 19 39 82 100 100 100 100 100 100 99 98 93 100 100 92 72 46 35 27 25 26 29 30 29 28 28 29 32 30 29 30 32 26 27 24 23 27 42 70 23 24 28 78
24 23 23 30 31 33 61 90 100 100 100 100 100 100 100 99 94 87 92 80 53 32 28 28 41 56 52 47 45 52 49 51 57 41 42 48 43 37 30 34 44 40 25 25 32 33 29
23 20 49 64 94 80 100 98 100 100 100 100 100 100 100 100 100 90 82 62 100 70 88 100 100 63 100 64 65 100 95 92 85 65 49 47 46 41 43 52 52 41 33 36 42 40 38
68 53 83 99 100 99 100 100 100 100 100 100 100 99 91 88 94 78 65 37 24 47 98 100 100 70 66 100 100 100 100 98 81 67 62 60 62 54 56 55 59 48 50 46 44 60 78
86 98 100 97 99 100 100 100 100 100 100 100 100 100 100 98 78 48 37 28 28 31 33 61 88 98 100 100 100 100 98 86 73 74 73 71 76 74 66 60 53 46 38 34 28 32 17
96 100 100 100 95 98 96 83 100 100 100 100 100 100 100 100 99 100 100 100 100 100 100 100 98 95 96 96 92 79 79 75 70 70 64 68 66 59 54 47 38 34 25 29 88 53 32
95 100 100 100 100 100 100 98 98 100 98 97 93 88 76 85 89 94 95 96 93 91 90 90 93 96 96 88 84 77 70 74 68 61 59 54 53 51 51 64 32 25 35 40 57 32 60
98 100 100 100 100 100 98 97 99 100 100 100 100 99 100 100 100 100 100 100 100 100 100 96 96 87 84 83 78 71 63 57 53 43 40 38 43 63 81 96 76 64 55 64 66 85 93
97 99 98 100 100 96 100 100 100 100 100 100 97 100 100 100 100 99 100 100 99 97 98 80 92 83 82 76 64 55 42 38 38 34 39 33 49 48 71 38 59 93 40 59 100 50 81

GFSGBSN_500_rhum_156.txt.gz
RH
56 48 50 54 59 70 62 60 62 53 62 45 53 36 25 15 16 20 22 22 22 22 22 22 22 22 22 21 22 20 22 22 22 21 22 21 21 22 33 27 22 16 14 12 11 10 10
48 47 44 45 44 43 63 72 74 66 48 40 47 59 63 40 29 22 28 16 18 18 19 20 22 22 23 24 23 21 21 21 20 21 20 19 18 20 34 29 40 33 24 22 19 18 13
12 29 36 36 33 33 41 50 70 73 74 72 72 66 53 43 33 33 28 22 25 25 22 18 17 16 18 18 21 22 22 23 40 33 30 24 16 16 24 29 38 30 17 16 24 25 26
6 5 6 8 15 23 33 41 48 59 74 72 72 69 73 72 71 68 68 65 29 28 30 29 30 26 20 27 23 18 17 20 22 20 24 31 29 28 30 29 24 32 34 35 40 43 38
7 8 7 6 5 6 14 33 61 47 49 48 57 54 58 66 69 71 77 76 68 65 54 39 34 33 32 34 38 40 41 23 26 31 22 28 29 33 40 39 34 36 35 48 46 53 48
9 9 9 9 9 7 6 60 46 26 52 40 35 28 30 32 44 51 52 47 45 51 60 65 64 59 60 48 48 58 53 49 41 37 45 39 39 37 36 46 42 57 53 54 49 56 66
14 12 10 12 11 10 10 9 8 8 42 54 59 48 28 38 41 44 51 42 40 39 41 68 58 58 60 45 52 51 52 55 59 59 65 63 60 45 57 62 60 57 53 50 55 67 70
20 21 16 14 16 15 14 12 12 11 8 10 67 33 69 69 82 98 87 56 59 59 59 48 42 34 78 60 60 61 56 58 57 57 62 57 44 62 63 56 55 52 48 47 52 72 90
20 21 21 22 20 20 20 15 16 22 12 51 97 57 94 80 93 97 92 75 77 65 58 46 49 44 79 58 54 58 51 51 54 55 62 65 64 60 63 64 64 62 66 77 73 86 76
23 26 24 22 28 30 28 24 18 18 17 15 46 47 93 91 96 87 93 99 76 56 80 49 82 58 46 35 14 48 46 46 62 71 88 68 71 75 73 71 93 74 95 83 86 84 66
11 20 30 26 24 31 36 36 28 25 22 18 97 97 88 100 67 97 96 98 99 100 97 74 36 48 48 41 28 49 75 65 75 98 96 76 93 98 91 92 100 80 99 100 84 87 73
4 8 16 27 34 41 44 44 41 36 28 90 20 93 91 92 66 49 87 93 99 98 97 72 43 44 45 49 41 35 96 80 85 87 89 80 98 89 95 94 96 99 95 99 97 100 75
2 4 8 16 25 42 56 57 55 47 41 46 32 52 99 98 88 70 24 97 100 89 96 92 63 64 64 47 43 59 72 90 96 96 92 94 81 92 79 73 69 75 79 88 86 95 82
13 3 6 10 21 31 49 61 66 63 54 44 34 26 53 100 31 25 18 56 99 87 92 94 53 39 86 70 59 55 65 63 76 74 84 91 87 84 91 58 48 55 76 82 61 60 70
92 38 4 10 25 46 65 70 56 72 74 57 52 51 43 28 24 24 24 18 38 91 100 95 84 74 76 93 72 56 45 50 79 61 62 63 55 75 72 44 25 32 38 55 70 67 66
87 65 21 14 100 96 100 100 80 76 80 85 86 100 59 88 79 39 35 37 29 94 53 69 49 94 95 99 74 70 56 45 52 48 53 53 45 39 30 27 20 27 44 54 54 46 55
100 98 100 68 47 51 67 84 72 71 95 98 94 100 100 87 73 69 47 30 66 100 76 57 74 91 83 100 85 58 63 77 54 60 62 51 42 44 34 23 21 25 32 41 39 30 51
84 100 100 100 100 100 100 100 82 89 100 100 100 100 98 100 100 94 50 39 41 67 51 51 54 54 98 93 100 56 79 80 46 27 29 28 23 19 20 27 18 35 42 48 29 28 39
100 100 100 100 100 100 100 100 100 100 100 100 100 100 100 100 100 84 70 63 56 61 42 39 41 51 87 52 60 62 99 88 65 26 20 19 19 19 18 25 50 30 31 17 24 45 38
100 100 100 100 100 100 100 100 100 100 100 100 100 100 100 100 100 96 87 82 73 67 61 48 51 60 60 46 48 65 82 63 42 28 23 23 22 20 20 26 79 61 38 22 34 35 37
100 100 100 100 100 98 98 98 99 100 100 100 100 98 100 100 98 92 87 84 84 80 74 71 63 62 53 49 48 55 62 58 34 29 26 26 25 24 23 22 24 26 44 30 59 72 99
100 100 79 87 46 26 33 48 64 89 96 100 100 80 88 100 98 100 100 100 100 100 100 100 84 64 54 49 37 34 28 27 38 29 32 30 30 30 31 32 39 34 27 26 29 95 100
96 87 63 46 44 41 34 21 15 14 46 92 100 99 94 100 97 100 100 100 100 100 100 97 99 74 86 66 48 53 95 81 86 66 58 44 44 51 40 60 47 40 33 36 39 48 48
36 34 33 35 32 26 21 16 13 12 12 52 91 97 98 98 100 100 100 100 100 100 100 100 97 95 81 63 79 81 87 68 84 75 86 84 80 76 53 66 61 46 42 51 56 53 54
16 15 15 14 16 16 15 14 16 21 37 52 99 98 96 100 100 100 99 100 98 100 98 92 99 100 90 96 100 100 100 100 97 88 85 100 100 92 74 75 66 43 40 62 70 66 54
14 14 15 20 23 22 40 61 82 85 90 96 92 98 100 100 100 100 100 100 97 100 96 100 98 100 100 99 100 100 100 100 96 76 97 100 100 91 78 63 63 34 47 55 62 57 42
31 34 60 63 73 86 96 100 100 100 100 100 100 100 100 99 99 100 100 100 96 99 97 98 98 80 73 80 94 97 100 100 94 94 98 96 86 69 58 60 52 37 42 44 46 52 42
49 56 77 96 98 94 94 93 95 100 99 99 100 100 100 100 100 98 98 98 88 85 79 70 72 73 72 73 83 88 98 96 96 94 91 89 77 65 59 59 43 50 52 69 70 60 57
84 89 87 83 97 100 100 100 100 100 100 100 100 100 98 95 99 100 100 98 100 97 97 90 98 98 100 100 93 92 84 77 83 80 77 68 66 60 57 58 60 51 67 48 90 99 70

GFSGBSN_500_rhum_162.txt.gz
RH
55 50 50 56 61 62 61 39 29 52 30 35 19 20 35 34 24 23 24 22 16 16 16 16 17 16 15 16 23 17 19 20 20 20 22 21 21 20 20 21 22 20 21 20 21 20 19
55 55 51 50 49 58 66 66 42 33 36 48 74 72 57 51 32 15 16 19 22 24 23 21 17 17 17 18 23 18 18 20 21 20 22 22 21 21 21 22 21 21 21 25 34 36 35
41 41 46 53 48 56 66 76 67 48 40 35 39 46 46 44 44 42 38 33 17 17 20 22 22 22 20 23 21 23 22 22 27 30 22 20 19 20 21 26 33 35 30 31 30 24 24
30 38 34 32 33 42 53 62 74 85 67 48 44 44 45 46 48 55 55 46 45 44 44 56 43 26 29 35 27 31 26 31 26 19 20 19 18 18 18 24 35 30 31 30 20 21 24
12 15 22 27 24 26 36 46 53 64 67 66 71 65 56 60 71 76 68 67 48 48 55 57 50 47 43 52 49 42 39 36 34 33 23 22 27 28 28 27 26 27 28 27 31 37 38
7 7 7 9 14 17 17 32 47 76 70 83 82 77 72 68 70 67 67 71 67 60 63 55 47 45 46 50 52 52 47 43 38 32 29 29 25 26 27 37 30 38 34 31 39 50 49
11 9 8 7 7 7 8 13 30 65 84 98 80 56 55 52 48 45 67 73 58 54 68 76 72 76 67 56 60 62 62 57 58 49 47 44 40 44 49 42 41 41 39 37 45 50 44
17 16 12 12 9 7 7 7 12 26 52 66 58 51 51 47 43 39 40 41 48 56 70 69 63 48 52 47 38 40 45 38 34 35 36 37 39 52 40 42 39 36 35 38 41 42 40
18 20 21 17 15 12 10 8 7 9 22 44 62 43 68 44 40 36 28 29 36 55 55 40 37 27 32 23 14 16 15 26 30 26 29 32 34 30 17 8 12 23 27 28 30 33 44
13 12 22 27 22 19 16 12 12 10 9 10 27 38 99 75 73 9 11 15 44 48 65 12 16 12 16 24 7 13 14 38 32 32 41 26 24 19 10 6 10 14 32 38 51 49 42
21 20 14 16 29 28 22 20 16 15 14 12 11 34 100 92 67 85 47 100 98 74 100 15 8 10 21 26 33 36 38 26 29 39 46 30 31 29 10 16 38 25 42 65 59 51 44
9 20 22 18 16 23 30 30 26 22 22 18 16 14 44 39 37 43 21 94 64 59 96 39 17 53 16 47 50 33 38 41 38 43 38 47 44 25 13 15 39 47 54 70 84 79 47
7 6 12 21 23 21 16 24 30 30 31 28 23 20 19 41 97 39 42 98 98 59 50 65 70 61 60 65 64 41 50 72 49 44 41 39 26 21 15 15 34 64 87 94 88 86 66
14 6 6 7 16 23 22 19 20 31 35 40 33 29 27 34 85 98 98 96 83 94 68 83 77 76 53 70 71 57 68 69 58 69 51 38 34 36 37 30 73 67 79 74 57 47 45
7 12 7 5 5 9 19 23 24 30 36 48 48 40 46 47 88 94 99 100 96 67 20 28 47 58 86 78 74 65 78 82 80 69 56 52 43 47 58 61 60 41 29 37 26 22 18
3 7 10 7 6 4 7 13 23 26 36 51 64 55 59 45 62 70 74 64 85 62 72 100 95 93 96 95 90 84 79 82 81 77 64 57 44 51 62 71 56 41 50 38 29 28 29
7 3 6 8 7 5 4 5 10 21 32 54 98 84 63 57 59 73 87 97 90 57 78 100 95 93 69 82 92 97 93 78 85 84 76 63 61 66 77 62 66 56 44 40 36 33 38
85 4 3 5 5 4 4 3 4 8 23 56 84 88 74 64 74 74 68 66 95 92 48 100 99 100 84 100 99 100 82 79 73 64 74 84 95 88 92 81 77 63 46 42 46 34 42
82 16 2 5 54 70 23 7 3 4 13 64 79 80 84 97 99 72 97 69 76 86 98 99 98 97 94 83 100 100 85 71 53 50 56 87 86 76 78 59 40 42 48 51 45 34 35
65 41 68 65 77 85 60 22 10 7 7 60 73 82 76 92 100 85 72 83 84 98 90 99 90 100 99 100 94 97 97 79 78 74 65 55 54 61 61 55 44 36 43 43 40 38 39
100 100 100 100 100 100 96 91 30 12 11 46 64 70 83 97 98 80 96 97 100 87 100 100 86 78 90 100 100 97 100 96 99 96 86 81 71 60 53 59 58 51 44 53 68 85 96
100 100 100 97 99 95 87 88 73 30 71 57 43 46 51 53 68 76 87 100 99 100 100 98 82 79 100 85 97 99 96 100 100 91 83 70 72 76 81 84 82 66 55 56 85 82 94
100 100 99 100 100 100 100 100 100 100 100 100 100 93 84 88 95 80 94 89 93 91 100 100 100 100 100 100 100 100 100 99 99 100 100 96 90 100 99 95 100 81 61 98 100 91 65
100 96 100 100 100 100 100 100 100 100 100 100 100 100 100 100 100 100 100 100 100 100 100 100 100 98 98 100 100 100 100 100 100 100 100 100 100 100 100 100 99 59 66 89 86 64 76
100 100 100 100 100 100 100 100 100 100 100 100 100 100 100 95 99 100 100 100 100 99 98 100 100 100 100 96 99 99 99 100 100 98 94 94 88 86 92 82 75 54 55 75 85 78 75
69 88 97 99 100 100 100 100 100 100 100 100 100 100 100 100 100 100 100 100 100 100 100 100 86 86 95 100 98 95 88 86 98 86 86 87 86 80 83 98 83 44 54 75 84 64 63
25 24 36 57 78 81 90 96 99 99 100 100 100 99 98 100 97 99 94 96 93 94 96 100 91 82 89 99 100 100 100 100 100 97 92 93 91 85 95 98 78 48 51 93 99 62 64
15 16 17 16 15 19 34 36 52 74 84 94 91 94 90 80 69 69 69 67 54 70 67 65 59 83 92 100 100 100 100 98 100 99 100 100 98 87 99 100 73 52 84 94 90 74 68
18 18 18 15 9 12 13 14 14 14 15 15 15 15 19 22 19 19 18 25 19 17 22 22 32 43 55 78 82 89 92 100 97 100 100 96 90 100 100 93 93 86 78 81 76 67 60

GFSGBSN_500_rhum_165.txt.gz
RH
75 73 58 40 42 52 45 43 40 30 28 16 15 19 24 26 24 21 18 15 15 14 14 14 14 16 14 16 18 16 18 18 17 18 18 18 18 19 20 20 18 16 19 21 21 22 22
75 74 74 67 45 39 45 51 48 42 34 29 18 15 15 17 23 25 25 25 24 23 26 20 14 15 14 18 17 15 17 20 21 20 20 20 20 21 20 21 21 21 21 21 23 28 31
72 73 71 76 69 67 66 64 65 60 51 46 38 25 28 38 15 16 16 22 28 34 32 27 24 22 20 24 21 19 19 17 19 20 22 21 20 21 24 23 19 19 19 20 23 30 34
53 66 75 74 70 85 80 66 65 72 67 63 57 47 30 52 49 53 56 45 48 51 38 24 18 26 24 25 24 24 21 23 21 20 22 23 24 23 34 33 23 20 20 20 26 28 26
42 50 53 73 74 74 74 88 63 71 68 68 72 70 48 38 47 59 56 66 63 50 40 38 35 36 41 31 38 45 50 37 29 30 37 27 26 27 23 23 20 19 22 24 24 27 31
28 45 50 49 62 72 71 72 68 70 64 66 74 86 75 56 51 44 41 44 46 44 43 44 40 47 47 45 46 54 57 50 41 39 50 48 37 35 38 41 30 29 28 30 33 41 38
10 26 54 51 46 52 59 64 65 98 95 68 72 74 86 89 80 58 51 48 46 47 54 67 62 70 61 51 51 59 50 43 45 48 53 53 46 43 55 46 43 42 36 34 41 38 32
10 12 16 48 48 41 45 45 43 50 69 98 62 68 68 82 67 68 75 67 67 61 66 68 60 56 67 58 53 60 53 54 54 60 56 50 46 48 41 34 32 34 33 32 28 27 24
4 8 16 12 30 38 30 37 39 37 37 97 72 76 100 95 99 88 75 78 70 62 55 45 53 42 70 53 46 52 61 54 48 43 35 29 28 27 23 21 23 27 23 11 6 12 18
11 5 8 20 14 18 22 20 23 28 31 61 55 88 98 100 93 88 72 62 56 54 51 37 42 34 46 55 28 39 42 35 27 22 24 13 16 20 24 30 29 19 10 6 9 8 13
14 15 8 8 22 19 14 15 13 12 17 51 72 100 93 98 98 76 95 79 80 72 77 43 26 27 31 35 29 27 39 23 14 17 18 20 27 35 28 35 25 16 14 10 20 27 17
16 13 19 11 12 22 24 18 15 12 11 18 41 64 83 98 68 98 100 100 98 100 89 35 9 10 17 18 18 13 12 20 24 33 27 27 23 33 42 40 34 25 15 10 13 16 7
9 15 10 22 17 12 23 30 23 18 14 13 18 25 54 90 96 94 99 77 97 98 59 29 48 54 44 21 10 9 17 18 21 38 34 31 40 42 55 46 41 29 16 15 17 24 23
5 9 15 9 22 24 16 21 35 31 25 22 16 22 20 24 41 47 49 76 98 57 92 74 37 33 45 18 11 10 52 36 36 58 53 37 38 57 47 42 34 25 26 24 38 51 47
4 5 10 14 8 24 28 23 22 35 38 32 27 32 32 35 30 33 50 82 99 66 80 72 54 67 30 19 35 64 69 41 33 51 55 49 57 74 60 49 49 47 46 67 60 40 31
28 5 5 12 10 8 24 30 24 24 42 44 42 49 43 40 47 49 81 41 53 36 91 66 50 66 52 59 86 81 66 44 46 47 54 62 68 79 68 57 52 42 60 61 52 39 37
86 49 5 6 14 7 8 22 28 33 28 44 68 100 60 46 56 74 96 62 38 43 93 100 91 96 80 70 35 34 49 46 55 87 94 92 94 87 82 64 56 65 68 74 76 62 54
100 100 49 4 8 12 5 8 20 31 34 39 60 84 87 72 83 67 89 75 74 58 100 97 98 92 94 73 66 74 57 76 98 100 90 98 95 91 94 74 61 70 72 87 83 62 68
100 100 100 44 4 9 11 4 6 15 28 37 60 63 76 93 99 100 73 84 94 86 71 98 95 75 61 71 99 96 93 94 97 90 87 79 83 86 87 82 68 53 66 79 76 71 66
94 99 100 63 6 5 10 6 4 4 11 21 44 68 87 100 100 86 72 68 52 55 78 85 93 89 98 99 97 79 89 87 95 93 99 94 90 85 74 68 74 94 78 79 68 62 56
92 93 100 93 16 5 6 6 4 5 4 6 85 75 75 77 64 62 84 75 78 64 55 51 56 76 92 94 90 62 96 90 87 96 93 83 78 72 78 97 100 98 81 64 66 60 53
100 100 66 58 11 6 8 12 14 3 16 51 39 42 40 67 96 84 91 80 82 85 66 61 60 60 84 94 100 98 100 86 90 95 82 91 95 78 100 100 99 83 63 65 60 50 52
100 100 100 100 100 100 100 100 99 78 76 45 82 33 15 27 26 61 68 77 73 62 70 99 82 87 98 93 95 100 100 100 100 99 96 98 96 100 100 94 87 66 50 57 59 60 69
100 100 100 100 100 90 66 71 66 85 99 100 97 63 34 29 40 56 68 81 78 77 100 100 100 99 90 98 100 100 100 99 93 98 100 100 100 98 100 93 94 50 50 59 90 100 100
100 100 100 100 100 100 100 100 98 95 100 98 100 100 100 100 83 67 99 99 100 100 100 100 100 100 100 100 100 100 99 100 100 100 100 100 99 100 100 100 94 55 55 58 96 100 100
100 100 100 98 83 90 100 98 100 100 100 100 100 84 100 99 66 68 69 69 100 100 93 100 100 100 96 100 100 99 99 99 100 100 100 100 100 100 100 96 89 72 82 70 67 58 45
92 100 100 100 100 100 100 100 99 100 100 100 100 100 100 100 100 100 100 89 96 100 100 99 100 100 100 100 100 100 100 100 100 100 98 98 96 91 84 86 69 59 51 54 48 37 54
46 38 49 78 100 100 100 100 100 100 100 100 100 100 100 100 100 100 100 100 100 100 100 100 100 100 100 100 100 100 96 97 97 81 68 60 72 68 93 100 70 49 65 67 65 60 50
14 18 20 21 37 97 87 96 99 100 98 99 100 100 100 99 100 100 100 100 99 98 100 100 100 100 99 98 99 98 95 92 87 89 88 80 78 88 90 81 83 80 76 74 72 73 78

GFSGBSN_500_rhum_168.txt.gz
RH
78 93 93 90 77 52 42 36 31 27 20 13 13 17 22 25 25 19 14 12 11 12 11 12 14 14 14 17 18 18 19 18 17 16 16 16 17 17 16 16 16 16 18 17 18 21 20
81 84 84 74 90 68 53 46 41 36 36 34 31 16 15 19 20 25 25 20 16 14 12 13 14 15 14 18 17 15 18 18 17 17 17 17 17 18 19 20 19 19 20 20 21 21 20
70 77 88 96 82 83 56 57 46 51 41 45 64 47 27 17 18 19 22 26 26 23 19 17 16 15 15 23 18 17 16 17 17 17 17 16 17 18 19 19 19 19 20 23 25 20 20
60 68 71 89 100 100 96 86 52 48 53 50 54 49 45 31 20 17 17 17 19 22 25 24 24 23 27 26 26 25 22 22 17 16 19 18 17 16 16 20 21 21 21 25 30 27 24
48 58 67 67 91 100 100 100 88 70 52 47 52 63 58 46 33 24 58 44 22 35 15 16 18 22 40 40 30 37 23 22 23 24 25 24 25 21 19 24 28 20 24 25 26 25 24
15 34 55 67 66 88 97 99 97 99 90 54 48 61 75 69 53 43 35 28 26 46 44 23 46 55 48 50 37 31 28 36 45 44 35 50 45 40 44 30 32 36 27 27 32 40 37
4 13 26 64 70 64 92 97 94 96 97 88 83 87 88 89 81 65 55 48 48 48 54 55 52 58 54 52 44 43 43 41 41 44 46 50 52 49 49 44 40 48 44 38 39 39 32
7 5 12 20 66 71 62 87 84 96 96 97 100 100 88 90 88 82 78 70 67 63 45 46 52 42 45 48 44 46 52 56 59 59 49 52 51 47 46 44 44 44 39 34 30 30 21
14 9 5 13 17 66 71 66 83 86 81 97 98 91 93 80 79 82 79 89 89 79 68 52 46 42 47 47 49 50 60 64 66 60 58 56 45 44 47 42 33 30 25 25 24 26 23
8 14 10 5 15 18 66 68 68 81 82 75 85 97 99 97 100 66 94 82 82 95 91 54 71 59 68 64 43 57 51 58 57 55 57 42 42 35 33 31 25 14 23 21 33 26 17
4 8 14 12 6 13 21 70 64 68 79 83 78 94 97 96 98 79 95 89 79 98 94 64 46 47 56 54 38 44 53 38 42 52 52 39 35 27 18 19 16 18 25 33 33 21 13
3 5 9 15 13 7 17 19 68 61 64 84 87 79 79 97 97 87 87 97 98 99 90 51 52 48 38 43 43 38 39 33 32 35 31 29 28 18 13 21 24 25 50 49 35 26 18
4 3 5 10 15 14 7 23 20 60 51 61 82 82 83 89 96 97 100 99 98 97 87 79 53 50 52 37 35 32 22 18 19 17 15 15 17 21 30 36 38 34 44 53 42 37 28
31 6 3 6 12 15 15 10 28 22 48 35 47 76 91 80 89 98 97 98 97 91 85 72 48 52 45 35 35 18 17 16 26 18 11 13 13 25 34 40 54 61 63 61 50 38 23
93 50 10 3 6 15 14 18 17 30 26 35 28 30 50 58 70 92 100 99 94 74 93 100 60 38 61 64 52 49 49 36 25 14 13 36 46 58 61 60 62 60 61 61 50 42 37
93 94 52 10 4 7 16 16 18 26 39 37 34 37 31 27 55 92 100 95 98 96 94 98 67 56 70 58 78 52 38 27 24 23 59 60 52 52 62 60 67 70 76 66 60 53 46
87 99 96 50 8 6 9 14 20 27 35 51 65 52 36 22 29 59 95 87 93 94 99 87 95 52 76 69 69 61 41 36 56 71 69 62 66 56 53 47 72 95 79 66 64 62 59
96 86 99 100 43 7 6 12 10 26 31 58 73 86 48 35 52 55 52 46 44 72 94 81 61 30 36 62 56 58 48 47 65 83 81 83 88 84 86 92 100 99 90 91 89 67 75
98 100 92 100 100 40 7 8 13 11 41 50 60 77 73 70 100 90 59 50 44 27 24 38 33 37 41 45 53 71 64 76 86 65 55 73 65 58 79 99 96 91 90 95 96 100 91
84 99 100 89 100 99 18 6 8 7 24 46 65 80 75 94 93 98 82 52 60 38 38 40 38 50 36 25 37 80 89 80 80 63 74 88 100 88 73 90 97 93 93 96 84 80 72
97 96 100 99 100 100 58 6 6 4 8 38 89 70 53 69 89 86 84 88 90 52 48 34 45 68 57 59 91 91 96 92 75 83 94 100 95 98 94 87 86 72 75 81 73 59 66
100 100 100 100 100 100 96 10 6 4 33 100 100 93 84 49 66 94 92 79 84 96 60 64 55 31 74 89 90 85 95 94 100 100 100 99 97 90 87 89 90 86 78 66 58 49 80
100 100 100 100 100 100 100 18 6 10 99 100 100 79 70 61 55 74 99 70 70 98 73 63 68 63 96 98 100 100 100 98 92 91 87 93 98 94 97 98 93 89 59 56 46 62 96
100 94 91 100 100 100 94 10 7 54 45 48 47 39 22 33 46 61 57 65 73 80 74 72 94 84 70 75 83 91 77 66 67 66 97 96 100 100 100 97 96 60 59 74 91 100 90
98 100 99 62 66 53 17 7 12 52 100 92 76 58 22 16 21 47 100 91 70 78 79 77 80 87 76 85 100 100 84 65 92 93 86 75 100 100 100 97 94 78 64 92 100 92 76
100 100 100 100 100 100 100 90 52 67 100 100 100 88 40 36 19 19 68 64 64 94 100 100 89 93 92 89 91 90 99 96 95 76 100 100 100 96 98 91 97 81 100 90 90 75 57
100 100 100 100 100 100 100 100 100 96 84 64 95 100 88 71 67 88 68 56 54 78 92 74 55 89 83 81 93 100 100 100 100 100 98 94 86 76 97 100 99 99 100 100 100 67 56
100 100 100 100 100 100 100 100 96 87 95 100 100 100 100 100 100 83 84 85 87 93 81 78 100 92 100 100 100 100 99 94 97 77 74 81 92 100 100 100 99 100 100 100 84 72 66
66 98 100 100 100 100 100 90 100 100 94 82 64 71 84 100 100 100 100 100 100 100 100 100 100 100 100 100 100 100 80 75 79 92 99 100 100 100 100 100 100 98 95 96 87 56 44

GFSGBSN_500_rhum_174.txt.gz
RH
98 95 97 96 96 90 73 85 48 14 18 25 26 23 12 10 8 7 6 6 6 6 6 7 7 8 10 12 14 14 14 16 17 17 16 14 12 12 12 12 11 12 12 13 13 13 14
98 97 96 96 97 96 90 57 81 39 17 15 22 25 27 22 12 9 9 8 7 7 7 7 8 8 9 11 12 14 15 15 16 16 16 16 16 16 16 16 16 17 16 16 16 16 16
53 98 97 91 96 98 98 86 82 92 47 21 15 15 21 27 27 23 13 10 10 10 10 9 9 9 9 13 12 13 14 15 17 18 18 18 18 18 18 17 18 18 17 17 17 17 17
9 88 98 97 91 98 96 94 96 97 92 46 36 20 14 16 23 27 27 24 21 17 12 12 12 11 10 13 12 12 14 15 15 17 16 16 16 15 14 14 14 13 14 14 12 15 12
16 9 94 98 96 92 96 98 96 97 72 86 79 50 26 17 16 17 20 25 27 27 26 24 21 16 16 16 14 13 14 16 17 14 15 17 19 17 17 18 18 17 18 16 16 22 25
11 16 15 96 98 96 95 97 98 94 98 74 92 72 62 39 33 21 17 14 16 19 24 23 24 27 24 23 22 19 18 19 22 29 42 28 25 26 28 35 34 28 26 34 40 38 29
8 12 15 20 96 99 93 95 97 97 97 96 96 92 57 52 65 44 31 19 19 14 15 24 18 19 24 27 29 30 40 26 24 24 27 29 30 34 31 32 35 39 38 35 39 39 39
7 7 13 14 22 95 97 95 96 97 97 98 96 96 97 91 78 83 49 38 37 40 38 31 22 24 19 29 26 24 24 25 31 36 40 44 40 48 48 44 39 39 37 37 40 42 43
8 6 6 13 14 24 94 95 95 97 97 97 96 96 97 98 97 92 61 51 50 47 49 43 39 38 61 53 43 24 42 48 60 60 47 50 40 48 58 55 45 43 45 50 47 44 47
20 7 5 6 13 13 20 94 96 95 96 96 98 99 98 96 97 97 90 89 66 68 66 61 53 49 53 79 82 50 43 61 64 69 66 62 56 55 63 54 46 47 49 43 44 46 41
37 22 6 5 5 14 12 16 92 97 96 95 97 98 99 97 97 91 95 100 95 100 92 70 68 68 61 69 63 61 39 33 41 47 65 72 68 66 57 44 54 47 43 45 45 40 30
35 38 20 5 4 4 13 12 13 80 97 96 96 97 98 98 97 98 97 98 97 99 95 74 60 66 78 82 76 69 64 53 40 41 52 65 47 43 46 59 50 42 41 42 37 32 24
50 32 32 15 4 4 4 13 12 12 64 99 96 97 97 99 97 94 98 96 98 96 87 69 57 55 64 75 80 71 75 74 67 65 64 68 62 64 62 48 41 36 33 32 26 21 16
59 39 35 30 8 4 4 4 13 12 11 54 99 97 96 98 98 97 97 99 97 88 87 70 62 78 77 86 84 77 81 77 76 69 69 66 70 64 51 43 37 31 27 28 23 18 17
30 61 48 42 21 8 4 3 5 13 12 12 44 98 98 98 98 99 98 98 89 79 95 90 85 93 90 89 83 78 73 79 74 62 64 65 69 54 43 34 28 23 18 26 23 19 16
50 84 65 50 55 12 6 3 3 6 15 16 18 82 96 98 99 99 99 97 92 94 98 96 90 87 92 100 92 90 83 69 66 67 76 63 61 50 40 30 23 19 23 26 28 23 20
53 93 89 90 60 43 23 6 4 4 8 16 20 44 77 84 100 100 98 97 87 97 97 98 95 88 98 96 96 98 95 86 87 89 83 68 60 50 40 32 28 24 22 28 42 41 47
97 100 100 99 76 54 43 57 8 4 5 10 20 32 23 51 94 100 99 96 94 99 87 95 96 96 94 97 96 98 98 100 96 92 79 76 65 48 45 35 32 29 32 35 38 53 50
45 43 45 40 55 68 70 88 70 8 4 7 13 30 27 74 86 96 94 97 93 100 96 96 90 94 97 94 92 94 99 94 97 94 97 92 73 69 58 49 50 44 51 51 55 66 41
97 78 73 71 63 68 79 92 100 52 10 8 14 28 41 100 100 96 93 92 97 98 100 99 99 99 98 94 97 97 98 100 97 99 99 98 74 74 67 69 54 64 73 73 75 60 46
93 100 100 100 86 82 82 90 100 91 54 15 100 44 50 94 97 100 79 98 95 98 98 99 99 92 92 94 99 95 97 100 96 90 86 80 71 64 56 64 53 44 58 81 72 56 55
100 100 99 100 100 98 88 92 100 100 100 63 73 48 62 43 98 100 99 82 97 94 100 92 92 90 87 90 97 100 98 100 97 99 97 92 70 83 65 56 53 47 36 65 64 64 59
72 98 100 100 100 100 90 92 100 100 100 100 100 82 51 100 66 94 93 85 77 98 98 98 88 100 100 84 100 100 97 98 98 99 99 95 91 74 67 64 55 56 30 69 79 70 65
45 75 86 100 94 96 99 98 100 100 100 100 59 100 93 100 100 86 100 89 98 99 88 98 100 95 96 100 98 85 69 65 79 89 84 87 67 64 70 92 82 33 48 66 72 63 71
67 54 76 100 100 100 100 93 100 100 100 100 90 100 100 100 99 98 76 99 100 100 96 91 93 94 94 100 100 93 78 72 60 48 44 49 63 79 98 98 90 60 44 60 86 63 73
88 95 100 100 99 100 100 100 96 100 100 100 97 100 100 100 99 100 97 91 82 88 100 99 92 95 99 98 85 87 97 81 82 66 69 97 81 81 75 83 66 37 64 60 79 64 52
94 90 100 100 100 100 98 100 100 100 100 98 100 98 94 90 98 97 100 64 74 84 90 100 84 94 100 92 100 99 100 84 92 82 80 84 92 88 94 100 98 91 84 84 75 60 52
99 82 86 100 99 91 95 88 100 100 100 100 98 100 100 100 100 100 98 100 100 100 87 73 65 76 91 99 100 91 100 100 99 81 76 76 89 100 100 100 95 80 78 66 60 68 88
100 96 95 99 100 99 95 72 94 98 96 66 99 100 100 98 100 96 100 90 84 96 87 70 99 100 100 100 88 75 74 77 88 97 82 84 72 69 60 65 68 66 57 61 68 91 99

GFSGBSN_500_rhum_177.txt.gz
RH
4 6 14 97 96 98 44 46 62 90 41 18 29 25 10 8 7 5 3 2 3 3 4 6 7 6 7 8 7 10 11 12 14 13 11 9 9 9 9 9 10 11 11 12 12 13 13
5 4 8 56 96 97 84 45 66 74 94 50 21 28 28 12 9 8 8 6 6 7 8 7 7 7 7 8 6 9 11 12 14 15 16 15 13 12 12 11 11 10 11 11 11 12 13
7 6 9 17 98 97 95 98 72 78 94 92 61 20 26 29 19 10 9 8 8 8 8 8 7 7 6 8 8 8 9 12 15 14 16 17 16 16 16 15 15 15 15 15 16 17 16
6 8 11 12 53 97 94 97 97 99 92 95 70 71 20 24 28 25 16 10 10 8 8 8 8 7 6 7 8 8 10 11 13 16 15 17 17 17 18 18 18 17 17 17 17 15 14
8 7 11 16 67 98 96 97 97 96 98 97 96 89 48 16 23 27 28 25 15 10 11 11 11 8 7 8 8 9 10 12 12 14 15 18 18 18 18 18 16 14 15 16 16 16 16
12 7 10 14 15 92 97 97 97 97 98 97 93 90 80 25 17 20 25 27 27 24 17 13 12 13 10 11 10 10 11 12 12 14 14 15 16 16 17 17 19 31 42 23 25 25 33
25 10 6 11 17 17 98 97 98 97 97 98 98 81 87 84 28 18 18 27 26 24 24 23 22 20 15 15 17 15 14 14 14 14 14 17 17 18 24 25 24 26 28 32 32 33 34
42 23 9 7 11 17 50 99 96 98 96 97 98 98 72 91 87 43 21 16 18 18 20 25 28 29 26 27 26 22 19 18 17 18 20 19 21 27 30 33 45 36 37 40 41 42 42
38 35 14 8 9 15 16 87 97 96 96 97 98 96 98 97 98 73 39 37 36 24 20 19 19 20 24 26 28 28 27 26 25 26 33 42 30 25 26 31 41 45 46 54 56 50 42
36 34 34 12 7 9 18 18 98 96 96 97 98 96 97 99 99 95 81 74 69 50 48 34 26 22 15 15 18 25 21 24 24 26 27 27 26 28 38 51 66 50 50 46 52 52 44
53 40 37 30 9 7 9 18 38 98 96 96 97 97 97 97 96 87 78 100 97 94 94 58 38 39 33 23 22 23 20 20 29 37 32 30 36 53 65 71 67 62 63 63 51 44 44
65 50 52 37 19 6 7 10 16 68 97 97 98 98 97 97 97 97 99 99 97 100 92 69 59 52 42 35 37 36 31 34 41 40 46 34 48 65 62 64 66 81 73 52 49 50 37
62 42 39 38 29 14 6 7 12 17 84 97 97 97 98 97 95 98 98 97 98 96 87 78 50 60 53 45 48 46 42 43 47 51 65 76 76 61 54 50 48 65 53 54 59 43 32
51 40 35 37 41 25 11 6 7 13 20 88 97 98 97 97 97 99 99 98 98 77 79 86 78 74 64 62 59 59 60 61 65 76 87 89 80 67 60 58 62 69 75 66 58 54 47
32 28 30 24 32 34 24 7 6 7 14 22 89 97 97 97 98 99 99 98 91 81 99 91 92 96 95 88 94 95 83 72 71 85 92 97 90 96 71 69 80 76 68 59 49 40 31
43 30 29 38 24 41 29 18 6 5 8 14 25 90 97 98 98 98 100 96 94 97 98 96 93 90 90 86 80 84 79 67 72 79 92 97 93 78 78 79 81 81 66 57 45 31 22
29 22 33 28 31 49 41 33 11 5 5 8 14 22 90 99 100 100 97 93 91 98 98 96 95 99 98 100 97 94 84 84 82 94 97 99 96 86 82 63 68 71 56 44 32 25 22
62 49 52 62 49 85 56 42 25 9 6 5 8 14 34 94 100 100 98 90 84 100 98 97 98 96 97 100 96 90 85 94 90 98 86 97 95 94 75 70 67 59 50 40 33 28 21
67 80 81 86 98 96 76 54 51 16 10 6 6 9 17 35 100 100 99 91 96 100 98 97 95 94 94 100 98 77 89 92 91 91 88 92 83 90 73 65 63 56 48 40 33 29 20
38 36 97 96 99 100 97 70 53 32 30 11 9 6 9 23 100 100 100 91 91 96 95 98 90 100 98 97 97 96 95 92 98 98 98 94 85 77 66 65 66 57 48 42 46 40 39
87 53 35 46 40 41 44 52 50 42 54 55 26 7 7 24 40 97 99 90 95 96 99 98 100 98 97 94 98 97 97 90 87 96 97 90 83 80 88 100 79 69 72 71 64 47 54
98 100 77 69 72 71 66 54 57 64 79 91 72 16 11 19 64 100 82 92 89 98 97 96 98 94 91 85 89 85 91 100 92 79 96 93 100 100 97 100 88 91 67 64 59 53 44
80 52 51 100 100 98 79 67 63 75 83 94 100 41 25 30 100 100 100 76 75 75 92 100 97 98 99 96 100 100 99 99 98 100 99 99 99 99 95 97 93 76 51 69 64 58 49
81 34 77 98 100 90 100 94 88 86 72 91 95 79 94 100 80 99 100 100 100 95 71 78 96 97 100 99 99 94 98 98 98 98 98 97 97 99 96 99 93 56 71 68 58 46 44
86 43 38 81 100 100 100 100 100 88 87 81 100 100 97 100 100 93 98 100 70 77 85 73 79 96 100 98 98 98 97 100 97 97 97 96 99 95 93 85 76 64 61 63 56 47 47
76 90 49 45 93 100 100 97 90 88 95 84 100 100 100 99 100 91 99 92 99 100 92 73 80 100 98 97 99 95 99 95 96 97 98 94 100 98 95 92 76 56 70 69 60 54 54
65 87 100 80 68 85 95 100 99 96 95 92 100 100 100 100 100 100 82 68 100 100 100 88 97 100 100 99 98 100 98 96 99 99 91 88 90 85 83 90 88 71 80 68 57 45 44
61 72 92 97 100 100 99 100 100 100 98 100 100 100 100 99 100 100 99 98 100 100 100 100 100 92 90 86 99 99 98 94 100 87 88 86 75 73 85 98 87 96 86 51 74 85 88
76 52 75 93 95 84 100 100 100 100 100 100 100 100 100 100 100 99 88 85 94 100 100 98 100 94 97 100 100 98 100 97 88 90 79 85 79 89 89 81 77 64 64 76 90 87 65